TimeCET,TemperatureF,Dew PointF,Humidity,Sea Level PressureIn,VisibilityMPH,Wind Direction,Wind SpeedMPH,Gust SpeedMPH,PrecipitationIn,Events,Conditions,WindDirDegrees,DateUTC
12:55 AM,35.6,17.6,48,30.12,-9999.0,South,2.3,-,N/A,,Clear,190,2012-11-09 23:55:00
1:00 AM,35,18,37,,6,South,2.3,,,,Overcast,190,2012-11-10 00:00:00
3:55 AM,32.0,23.0,69,30.06,-9999.0,ESE,15.0,-,N/A,,Clear,120,2012-11-10 02:55:00
4:00 AM,33,22,53,,7,ESE,15.0,,,,Partly Cloudy,120,2012-11-10 03:00:00
4:55 AM,32.0,23.0,69,30.06,-9999.0,ESE,11.5,-,N/A,,Clear,120,2012-11-10 03:55:00
5:55 AM,33.8,21.2,60,30.04,6.2,ESE,17.3,-,N/A,,Scattered Clouds,120,2012-11-10 04:55:00
6:55 AM,32.0,23.0,69,30.04,3.7,SE,9.2,-,N/A,Rain,Light Rain,140,2012-11-10 05:55:00
7:00 AM,32,24,61,,4,SE,9.2,,,Rain,Light Rain,140,2012-11-10 06:00:00
7:55 AM,30.2,30.2,100,30.04,5.0,ESE,15.0,-,N/A,Rain,Freezing Rain,120,2012-11-10 06:55:00
8:55 AM,28.4,28.4,100,30.06,1.6,SSE,6.9,-,N/A,Rain-Snow,Freezing Rain,160,2012-11-10 07:55:00
9:55 AM,28.4,26.6,93,30.06,1.2,SE,15.0,-,N/A,Snow,Light Snow,130,2012-11-10 08:55:00
10:00 AM,29,27,87,,1,SE,15.0,,,Snow,Light Snow,130,2012-11-10 09:00:00
10:55 AM,35.6,32.0,87,30.06,1.2,SSE,16.1,-,N/A,Rain,Light Rain,150,2012-11-10 09:55:00
11:55 AM,37.4,32.0,81,30.06,2.5,SSE,13.8,27.6,N/A,Rain,Light Rain,150,2012-11-10 10:55:00
12:55 PM,37.4,33.8,87,30.04,0.2,SSE,12.7,-,N/A,Fog,Fog,150,2012-11-10 11:55:00
1:00 PM,38,34,78,,0,SSE,12.7,,,Fog,Heavy Fog,150,2012-11-10 12:00:00
1:55 PM,33.8,32.0,93,30.04,0.1,SE,16.1,-,N/A,Fog,Fog,140,2012-11-10 12:55:00
2:55 PM,33.8,30.2,87,30.04,0.1,SE,15.0,-,N/A,Fog,Fog,130,2012-11-10 13:55:00
3:55 PM,32.0,28.4,87,30.01,0.1,ESE,16.1,-,N/A,Fog-Rain,Light Rain,120,2012-11-10 14:55:00
4:00 PM,33,29,78,,0,ESE,16.1,,,Rain,Light Rain,120,2012-11-10 15:00:00
5:55 PM,32.0,28.4,87,29.98,0.1,South,8.1,-,N/A,Fog-Rain,Light Rain,170,2012-11-10 16:55:00
6:55 PM,32.0,28.4,87,29.98,0.1,South,10.4,27.6,N/A,Fog-Rain,Light Rain,170,2012-11-10 17:55:00
7:00 PM,33,28,77,,0,South,10.4,,,Rain,Light Rain,170,2012-11-10 18:00:00
9:55 PM,32.0,28.4,87,29.98,0.1,SSE,12.7,-,N/A,Fog-Rain,Light Rain,150,2012-11-10 20:55:00
10:00 PM,32,28,79,,0,SSE,12.7,,,Rain,Light Rain,150,2012-11-10 21:00:00